Location: Ago
(8.4667°N, 4.4167°E)
Time: 14:17:48
(UTC+00:00)

CSL-04 Rocket - Pass Details

Date: 06 June 2020
Orbit: 806 x 860 km, 98.9° (Epoch: 12 July)

Event Time Altitude Azimuth Distance (km) Brightness Sun altitude
Exits shadow 19:12:58 - 176° (S) 2,880 6.2 -17.4°
Reaches altitude 10° 19:14:03 10° 178° (S) 2,454 5.8 -17.6°
Maximum altitude 19:19:25 61° 257° (WSW) 959 4.2 -18.8°
Drops below altitude 10° 19:24:52 10° 337° (NNW) 2,480 6.8 -20.0°
Sets 19:27:16 0° 341° (NNW) 3,420 7.6 -20.5°
